This is the latest recevied weather packets stored in our database for station/object OE3CJB-13. If no packets are shown the sender has not sent any weather packets the latest 10 day(s).
| Time | Temp. | Humidity | Pressure | Rain* | Wind** | Luminosity | Snow |
|---|---|---|---|---|---|---|---|
| 1788537649 | 31.67° C | 12% | 1182.1 hPa | 0 mm | - | - | - |
| 1788536746 | 31.67° C | 12% | 1182.2 hPa | 0 mm | - | - | - |
| 1788535823 | 32.22° C | 11% | 1181.6 hPa | 0 mm | - | - | - |
| 1788534958 | 32.22° C | 11% | 1182.6 hPa | 0 mm | - | - | - |
| 1788534048 | 32.22° C | 11% | 1181.2 hPa | 0 mm | - | - | - |
| 1788533135 | 32.22° C | 11% | 1182.2 hPa | 0 mm | - | - | - |
| 1788532222 | 32.22° C | 13% | 1180.8 hPa | 0 mm | - | - | - |
| 1788531358 | 32.22° C | 14% | 1182.5 hPa | 0 mm | - | - | - |
| 1788530467 | 32.22° C | 15% | 1180.4 hPa | 0 mm | - | - | - |
| 1788529539 | 31.67° C | 18% | 1180.5 hPa | 0 mm | - | - | - |
| 1788528623 | 31.67° C | 18% | 1180.7 hPa | 0 mm | - | - | - |
| 1788527759 | 31.11° C | 19% | 1180.1 hPa | 0 mm | - | - | - |
| 1788526848 | 31.11° C | 20% | 1179.5 hPa | 0 mm | - | - | - |
| 1788525940 | 30.56° C | 22% | 1180.6 hPa | 0 mm | - | - | - |
| 1788525022 | 30° C | 23% | 1180 hPa | 0 mm | - | - | - |
| 1788524158 | 29.44° C | 24% | 1179.4 hPa | 0 mm | - | - | - |
| 1788523248 | 29.44° C | 24% | 1178.9 hPa | 0 mm | - | - | - |
| 1788522335 | 28.89° C | 24% | 1178.3 hPa | 0 mm | - | - | - |
| 1788521423 | 28.89° C | 25% | 1179.2 hPa | 0 mm | - | - | - |
| 1788520558 | 28.33° C | 26% | 1177.7 hPa | 0 mm | - | - | - |
| 1788519648 | 28.33° C | 26% | 1178 hPa | 0 mm | - | - | - |
| 1788518766 | 28.33° C | 27% | 1177.4 hPa | 0 mm | - | - | - |
| 1788517835 | 27.78° C | 29% | 1176.1 hPa | 0 mm | - | - | - |
| 1788516965 | 27.78° C | 31% | 1175.5 hPa | 0 mm | - | - | - |
| 1788516049 | 27.22° C | 32% | 1173.4 hPa | 0 mm | - | - | - |
* Rain latest hour (hover to see other rain measurements)
** Current wind speed in m/s (hover to see current wind gust speed)